GW5116 Weather Reports


Display with metric or nautical units.
time (UTC)temp
F
wind
direction
speed
MPH
gust
MPH
rain 1hr
in
rain 24hr
in
rain mn
in
humidity
%
barometer
mb
20260502152206 51 69 3.0 6.0 0.00 0.00 0.00 48 1019.0
20260502151703 51 73 4.0 6.0 0.00 0.00 0.00 48 1018.9
20260502151200 53 83 0.0 1.0 0.00 0.00 0.00 55 1019.0
20260502150657 51 330 2.0 8.0 0.00 0.00 0.00 52 1019.0
20260502150154 50 58 0.0 1.0 0.00 0.00 0.00 59 1019.1
20260502140117 49 220 1.0 3.0 0.00 0.00 0.00 62 1019.3
20260502130542 44 88 1.0 2.0 0.00 0.00 0.00 87 1019.5
20260502123525 39 63 0.0 1.0 0.00 0.00 0.00 97 1019.3
20260502123022 38 56 1.0 1.0 0.00 0.00 0.00 98 1019.2
20260502122519 38 81 1.0 1.0 0.00 0.00 0.00 99 1019.2
20260502122016 37 60 0.0 1.0 0.00 0.00 0.00 99 1019.3
20260502121513 37 69 0.0 1.0 0.00 0.00 0.00 99 1019.6
20260502121011 36 84 0.0 1.0 0.00 0.00 0.00 99 1019.5
20260502120507 36 36 0.0 0.0 0.00 0.00 0.00 99 1019.3
20260502115501 35 66 0.0 0.0 0.00 0.00 0.00 99 1019.5
20260502114957 35 71 0.0 0.0 0.00 0.00 0.00 99 1019.5
20260502114454 36 67 0.0 0.0 0.00 0.00 0.00 99 1019.6
20260502113951 36 270 0.0 0.0 0.00 0.00 0.00 99 1019.2
20260502113449 34 270 0.0 0.0 0.00 0.00 0.00 99 1019.5
20260502112947 33 270 0.0 0.0 0.00 0.00 0.00 99 1019.3
20260502112444 33 270 0.0 0.0 0.00 0.00 0.00 99 1019.3
20260502111942 33 270 0.0 0.0 0.00 0.00 0.00 99 1019.3
20260502111439 33 270 0.0 0.0 0.00 0.00 0.00 99 1019.2
20260502110936 33 270 0.0 0.0 0.00 0.00 0.00 99 1019.0
20260502110434 33 270 0.0 0.0 0.00 0.00 0.00 99 1019.2
20260502105931 33 270 0.0 0.0 0.00 0.00 0.00 99 1019.0
20260502105428 33 270 0.0 0.0 0.00 0.00 0.00 99 1018.9
20260502104926 33 270 0.0 0.0 0.00 0.00 0.00 99 1019.0
20260502104423 33 269 0.0 0.0 0.00 0.00 0.00 99 1019.2
20260502103920 33 270 0.0 0.0 0.00 0.00 0.00 99 1019.2
20260502103418 33 270 0.0 0.0 0.00 0.00 0.00 99 1019.6
20260502102915 33 269 0.0 0.0 0.00 0.00 0.00 99 1019.5
20260502102411 33 270 0.0 0.0 0.00 0.00 0.00 99 1019.5
20260502101909 33 271 0.0 0.0 0.00 0.00 0.00 99 1019.6
20260502101407 33 275 0.0 0.0 0.00 0.00 0.00 99 1019.5
20260502100905 33 275 0.0 0.0 0.00 0.00 0.00 99 1019.6
20260502100404 33 270 0.0 0.0 0.00 0.00 0.00 99 1019.5
20260502091337 34 271 0.0 0.0 0.00 0.00 0.00 99 1019.5
20260502090835 33 181 0.0 0.0 0.00 0.00 0.00 99 1019.6
20260502090332 33 207 0.0 0.0 0.00 0.00 0.00 99 1019.6
20260502071227 35 232 0.0 0.0 0.00 0.00 0.00 99 1019.0
20260502070725 35 232 0.0 0.0 0.00 0.00 0.00 99 1018.8
20260502070223 36 234 0.0 0.0 0.00 0.00 0.00 99 1018.9
20260502065721 36 227 0.0 0.0 0.00 0.00 0.00 99 1018.8
20260502065218 36 238 0.0 0.0 0.00 0.00 0.00 99 1018.9
20260502064717 36 267 0.0 0.0 0.00 0.00 0.00 99 1019.1
20260502064214 35 269 0.0 0.0 0.00 0.00 0.00 99 1019.3
20260502063711 35 267 0.0 0.0 0.00 0.00 0.00 98 1019.3
20260502063209 35 267 0.0 0.0 0.00 0.00 0.00 98 1019.6
20260502062706 35 267 0.0 0.0 0.00 0.00 0.00 98 1019.3
20260502062203 36 267 0.0 0.0 0.00 0.00 0.00 98 1019.8
20260502061702 36 267 0.0 0.0 0.00 0.00 0.00 98 1019.5
20260502061159 37 267 0.0 0.0 0.00 0.00 0.00 98 1019.7
20260502060654 37 266 0.0 0.0 0.00 0.00 0.00 98 1019.7
20260502060151 37 267 0.0 0.0 0.00 0.00 0.00 98 1019.6
20260502055648 37 268 0.0 0.0 0.00 0.00 0.00 97 1019.6
20260502055146 37 268 0.0 0.0 0.00 0.00 0.00 97 1019.6
20260502054645 37 268 0.0 0.0 0.00 0.00 0.00 97 1019.8
20260502054142 37 268 0.0 0.0 0.00 0.00 0.00 97 1019.6
20260502053639 38 268 0.0 0.0 0.00 0.00 0.00 97 1019.7
20260502053136 38 268 0.0 0.0 0.00 0.00 0.00 97 1019.6
20260502052635 38 269 0.0 0.0 0.00 0.00 0.00 97 1019.7
20260502052132 38 278 0.0 0.0 0.00 0.00 0.00 96 1019.6
20260502051630 39 281 0.0 0.0 0.00 0.00 0.00 96 1019.7
20260502051128 39 281 0.0 0.0 0.00 0.00 0.00 95 1019.7
20260502050624 39 281 0.0 0.0 0.00 0.00 0.00 95 1019.8
20260502050121 40 280 0.0 0.0 0.00 0.00 0.00 95 1019.8
20260502045617 40 280 0.0 0.0 0.00 0.00 0.00 94 1019.7
20260502045115 40 281 0.0 0.0 0.00 0.00 0.00 94 1019.9
20260502044611 40 281 0.0 0.0 0.00 0.00 0.00 93 1019.7
20260502044108 41 281 0.0 0.0 0.00 0.00 0.00 92 1019.8
20260502043606 41 281 0.0 0.0 0.00 0.00 0.00 92 1019.8
20260502043102 42 282 0.0 0.0 0.00 0.00 0.00 92 1019.7
20260502042556 42 284 0.0 0.0 0.00 0.00 0.00 91 1019.7
20260502042054 42 292 0.0 0.0 0.00 0.00 0.00 91 1019.8
20260502041552 43 286 0.0 0.0 0.00 0.00 0.00 90 1019.7
20260502041048 43 328 0.0 0.0 0.00 0.00 0.00 90 1019.8
20260502040545 43 328 0.0 0.0 0.00 0.00 0.00 90 1019.7
20260502040042 43 302 0.0 0.0 0.00 0.00 0.00 89 1019.7
20260502035538 44 357 0.0 0.0 0.00 0.00 0.00 88 1019.5
20260502035036 44 358 0.0 0.0 0.00 0.00 0.00 87 1019.6
20260502034534 44 358 0.0 0.0 0.00 0.00 0.00 87 1019.6
20260502034032 44 274 0.0 0.0 0.00 0.00 0.00 86 1019.6
20260502033530 45 1 0.0 0.0 0.00 0.00 0.00 85 1019.5
20260502033027 45 68 0.0 0.0 0.00 0.00 0.00 85 1019.7
20260502032522 45 296 0.0 0.0 0.00 0.00 0.00 86 1019.6
20260502032020 45 296 0.0 0.0 0.00 0.00 0.00 83 1019.6
20260502031517 46 297 0.0 0.0 0.00 0.00 0.00 83 1019.6
20260502031015 46 286 0.0 0.0 0.00 0.00 0.00 82 1019.7
20260502030514 47 330 0.0 0.0 0.00 0.00 0.00 81 1019.5
20260502030011 47 283 0.0 0.0 0.00 0.00 0.00 80 1019.3
20260502025508 47 283 0.0 0.0 0.00 0.00 0.00 78 1019.6
20260502025006 47 147 0.0 0.0 0.00 0.00 0.00 77 1019.3
20260502024503 48 66 0.0 0.0 0.00 0.00 0.00 75 1019.7
20260502024002 48 112 0.0 0.0 0.00 0.00 0.00 77 1019.6
20260502023459 48 175 0.0 0.0 0.00 0.00 0.00 72 1019.5
20260502022956 49 307 0.0 1.0 0.00 0.00 0.00 71 1019.5
20260502022453 49 307 0.0 4.0 0.00 0.00 0.00 69 1019.1
20260502021950 49 280 0.0 1.0 0.00 0.00 0.00 73 1018.9
20260502021447 49 68 0.0 1.0 0.00 0.00 0.00 69 1018.9
20260502020944 49 311 2.0 2.0 0.00 0.00 0.00 71 1018.4
20260502020442 50 33 2.0 4.0 0.00 0.00 0.00 69 1018.3
20260502015938 50 64 3.0 4.0 0.00 0.00 0.00 67 1018.5
20260502015436 50 57 1.0 1.0 0.00 0.00 0.00 69 1018.5
20260502014933 50 305 1.0 2.0 0.00 0.00 0.00 70 1018.6
20260502014430 50 207 1.0 1.0 0.00 0.00 0.00 72 1018.3
20260502013926 50 66 1.0 1.0 0.00 0.00 0.00 70 1018.4
20260502013422 50 79 1.0 1.0 0.00 0.00 0.00 78 1018.2
20260502012918 50 95 0.0 1.0 0.00 0.00 0.00 73 1018.2
20260502012416 49 214 0.0 2.0 0.00 0.00 0.00 81 1018.1
20260502011914 49 273 1.0 1.0 0.00 0.00 0.00 82 1018.0
20260502011410 50 300 0.0 0.0 0.00 0.00 0.00 81 1017.8
20260502010907 50 332 0.0 1.0 0.00 0.00 0.00 79 1017.7
20260502010403 50 68 0.0 1.0 0.00 0.00 0.00 78 1017.4
20260502005900 50 84 0.0 1.0 0.00 0.00 0.00 82 1017.4
20260502005358 50 324 2.0 3.0 0.00 0.00 0.00 84 1017.3
20260502004855 50 313 0.0 0.0 0.00 0.00 0.00 84 1017.3
20260502004351 50 66 0.0 0.0 0.00 0.00 0.00 85 1017.3
20260502003849 50 73 0.0 0.0 0.00 0.00 0.00 85 1017.4
20260502003346 50 85 0.0 0.0 0.00 0.00 0.00 83 1017.3
20260502002842 50 85 0.0 0.0 0.00 0.00 0.00 84 1017.0
20260502002339 50 85 0.0 0.0 0.00 0.00 0.00 84 1017.1
20260502001836 50 85 0.0 0.0 0.00 0.00 0.00 82 1017.0
20260502001334 51 85 0.0 0.0 0.00 0.00 0.00 83 1016.7
20260502000831 51 128 0.0 0.0 0.00 0.00 0.00 83 1016.6
20260502000332 51 201 0.0 0.0 0.00 0.00 0.00 82 1016.5
20260501235825 51 261 0.0 0.0 0.00 0.00 0.00 80 1016.1
20260501235321 51 261 0.0 0.0 0.00 0.00 0.00 80 1016.2
20260501234817 51 265 0.0 0.0 0.00 0.00 0.00 78 1015.9
20260501234314 52 265 0.0 0.0 0.00 0.00 0.00 78 1015.9
20260501233813 52 265 0.0 0.0 0.00 0.00 0.00 77 1016.1
20260501233309 52 298 0.0 0.0 0.00 0.00 0.00 78 1015.9
20260501232805 52 298 0.0 0.0 0.00 0.00 0.00 77 1015.8
20260501232305 52 145 0.0 0.0 0.00 0.00 0.00 77 1016.1
20260501231800 52 4 0.0 0.0 0.00 0.00 0.00 74 1016.0
20260501231258 52 279 0.0 0.0 0.00 0.00 0.00 72 1016.1
20260501230756 52 50 0.0 2.0 0.00 0.00 0.00 71 1016.2
20260501230254 53 60 0.0 1.0 0.00 0.00 0.00 72 1016.3
20260501225751 53 234 1.0 3.0 0.00 0.00 0.00 66 1015.9
20260501225249 53 81 1.0 3.0 0.00 0.00 0.00 67 1016.0
20260501224744 53 48 2.0 3.0 0.00 0.00 0.00 68 1016.2
20260501224242 53 73 2.0 6.0 0.00 0.00 0.00 65 1015.9
20260501223738 54 38 2.0 6.0 0.00 0.00 0.00 64 1015.7
20260501223235 54 71 3.0 4.0 0.00 0.00 0.00 64 1016.1
20260501222731 55 12 0.0 1.0 0.00 0.00 0.00 62 1015.6
20260501222228 55 68 2.0 8.0 0.00 0.00 0.00 62 1015.7
20260501221725 55 38 3.0 8.0 0.00 0.00 0.00 61 1015.5
20260501221222 55 43 10.0 14.0 0.00 0.00 0.00 62 1015.7
20260501220720 56 59 2.0 3.0 0.00 0.00 0.00 64 1015.6
20260501220217 56 65 3.0 8.0 0.00 0.00 0.00 65 1015.5
20260501215709 56 13 4.0 9.0 0.00 0.00 0.00 63 1015.4
20260501215204 56 75 3.0 8.0 0.00 0.00 0.00 65 1015.5
20260501214659 56 279 3.0 10.0 0.00 0.00 0.00 65 1015.4
20260501214155 57 53 6.0 7.0 0.00 0.00 0.00 68 1015.3
20260501213652 57 82 4.0 6.0 0.00 0.00 0.00 71 1015.3
20260501213148 57 65 2.0 6.0 0.00 0.00 0.00 67 1014.9
20260501212645 57 200 3.0 4.0 0.00 0.00 0.00 66 1014.8
20260501212141 57 82 3.0 6.0 0.00 0.00 0.00 72 1014.9
20260501211638 58 349 2.0 7.0 0.00 0.00 0.00 66 1014.5
20260501211136 57 51 4.0 4.0 0.00 0.00 0.00 69 1014.9
20260501210632 56 32 1.0 4.0 0.00 0.00 0.00 67 1014.9
20260501210129 56 63 4.0 8.0 0.00 0.00 0.00 68 1015.1
20260501205625 56 37 1.0 6.0 0.00 0.00 0.00 68 1014.6
20260501205123 56 235 2.0 4.0 0.00 0.00 0.00 72 1014.7
20260501204619 56 97 6.0 11.0 0.00 0.00 0.00 69 1014.8
20260501204115 57 60 4.0 7.0 0.00 0.00 0.00 66 1014.8
20260501203612 57 73 11.0 14.0 0.00 0.00 0.00 65 1014.6
20260501203109 58 97 4.0 10.0 0.00 0.00 0.00 62 1014.5
20260501202607 60 30 3.0 4.0 0.00 0.00 0.00 58 1014.0
20260501202103 60 71 2.0 6.0 0.00 0.00 0.00 60 1014.3
20260501201600 61 144 4.0 6.0 0.00 0.00 0.00 52 1014.3
20260501201056 61 292 5.0 8.0 0.00 0.00 0.00 50 1014.2
20260501200554 63 60 7.0 9.0 0.00 0.00 0.00 47 1013.7
20260501200051 63 77 1.0 3.0 0.00 0.00 0.00 47 1013.6
20260501195549 63 100 3.0 6.0 0.00 0.00 0.00 46 1013.8
20260501195044 63 79 2.0 6.0 0.00 0.00 0.00 45 1013.7
20260501194539 63 137 3.0 7.0 0.00 0.00 0.00 43 1013.7
20260501194035 63 100 0.0 3.0 0.00 0.00 0.00 40 1013.6
20260501193533 63 42 0.0 3.0 0.00 0.00 0.00 45 1013.5
20260501193032 63 99 1.0 7.0 0.00 0.00 0.00 40 1013.6
20260501192528 64 72 9.0 15.0 0.00 0.00 0.00 38 1013.5
20260501192026 65 122 3.0 4.0 0.00 0.00 0.00 38 1013.6
20260501191522 65 70 6.0 9.0 0.00 0.00 0.00 36 1013.6
20260501191020 67 34 3.0 7.0 0.00 0.00 0.00 36 1013.7
20260501190515 65 98 5.0 6.0 0.00 0.00 0.00 38 1014.0
20260501190012 64 89 5.0 10.0 0.00 0.00 0.00 35 1013.7
20260501185507 64 134 3.0 14.0 0.00 0.00 0.00 36 1013.9
20260501185003 64 136 6.0 11.0 0.00 0.00 0.00 36 1013.8
20260501184459 65 228 1.0 4.0 0.00 0.00 0.00 36 1013.6
20260501183954 64 77 4.0 9.0 0.00 0.00 0.00 36 1013.9
20260501183452 65 142 4.0 9.0 0.00 0.00 0.00 35 1014.0
20260501182948 63 79 5.0 7.0 0.00 0.00 0.00 38 1014.1
20260501182445 63 122 2.0 8.0 0.00 0.00 0.00 36 1014.3
20260501181941 65 305 1.0 13.0 0.00 0.00 0.00 35 1014.3
20260501181439 65 96 3.0 6.0 0.00 0.00 0.00 35 1014.1
20260501180936 64 314 3.0 8.0 0.00 0.00 0.00 33 1014.2
20260501180433 63 67 5.0 11.0 0.00 0.00 0.00 34 1014.5
20260501175929 63 323 3.0 9.0 0.00 0.00 0.00 33 1014.4
20260501175426 63 105 10.0 14.0 0.00 0.00 0.00 32 1014.4
20260501174923 63 83 6.0 11.0 0.00 0.00 0.00 33 1014.3
20260501174421 64 104 2.0 3.0 0.00 0.00 0.00 34 1014.4
20260501173918 63 144 3.0 7.0 0.00 0.00 0.00 32 1014.1
20260501173416 63 116 2.0 11.0 0.00 0.00 0.00 33 1014.3
20260501172911 63 28 0.0 6.0 0.00 0.00 0.00 31 1014.4
20260501172407 63 136 5.0 13.0 0.00 0.00 0.00 32 1014.4
20260501171902 63 100 3.0 9.0 0.00 0.00 0.00 32 1014.7
20260501171359 64 105 6.0 13.0 0.00 0.00 0.00 35 1014.7
20260501170855 62 291 4.0 7.0 0.00 0.00 0.00 35 1014.6
20260501170352 62 139 4.0 6.0 0.00 0.00 0.00 36 1014.4
20260501165850 61 176 3.0 7.0 0.00 0.00 0.00 34 1014.7
20260501165348 62 122 6.0 13.0 0.00 0.00 0.00 33 1014.8
20260501164845 61 158 2.0 9.0 0.00 0.00 0.00 38 1014.8
20260501164343 61 94 8.0 10.0 0.00 0.00 0.00 36 1015.1
20260501163838 60 192 8.0 10.0 0.00 0.00 0.00 36 1014.7
20260501163335 60 111 3.0 8.0 0.00 0.00 0.00 38 1014.9
20260501162832 61 113 3.0 7.0 0.00 0.00 0.00 41 1014.9
20260501162329 61 137 1.0 2.0 0.00 0.00 0.00 40 1014.9
20260501161826 61 101 3.0 6.0 0.00 0.00 0.00 39 1015.3
20260501161323 60 109 2.0 7.0 0.00 0.00 0.00 42 1014.9
20260501160819 60 120 2.0 4.0 0.00 0.00 0.00 40 1015.5
20260501160316 60 152 6.0 8.0 0.00 0.00 0.00 41 1015.2
20260501155814 59 90 6.0 10.0 0.00 0.00 0.00 42 1015.3
20260501155310 58 67 7.0 9.0 0.00 0.00 0.00 42 1015.8
20260501154807 59 113 7.0 9.0 0.00 0.00 0.00 45 1015.5